Other Public Products
Issued by NWS Grand Forks, ND

Home | Current Version | Previous Version | Graphics & Text | Print | Product List | Glossary On
Versions: 1 2 3 4 5 6 7 8 9 10 11 12 13 14 15 16 17 18 19 20 21 22 23 24 25 26 27 28 29 30 31 32 33 34 35 36 37 38 39 40 41 42 43 44 45 46 47 48 49 50
000
FPUS83 KFGF 241331
OPUFGF
PRAIRIE TO PINES WEATHER ROUNDUP
NATIONAL WEATHER SERVICE EASTERN NORTH DAKOTA/GRAND FORKS ND
800 AM CDT SUN MAY 24 2015

 **SATELLITE DATA USED TO AUGMENT SKY COVER AT AUTOMATED STATIONS**
 *****  WEATHER ACROSS EASTERN NORTH DAKOTA  *****

CITY           SKY/WX    TMP DP  RH WIND       PRES   REMARKS
GRAND FORKS    MOSUNNY   57  48  72 S3        30.08S
GRAND FORKS AF MOSUNNY   57  48  72 S3        30.08S
GRAND CITY NWS   N/A     54 N/A N/A S2          N/A
BUXTON           N/A     60  53  78 NE2         N/A
DEVILS LAKE    PTSUNNY   59  50  72 CALM      30.08R
FARGO          PTSUNNY   59  51  75 NE6       30.06S
WAHPETON ARPT  CLOUDY    59  46  63 E7        30.03F
$$

 *****  WEATHER ACROSS CENTRAL AND WESTERN NORTH DAKOTA  *****

CITY           SKY/WX    TMP DP  RH WIND       PRES   REMARKS
JAMESTOWN      PTSUNNY   58  51  78 NE7       30.06F
BISMARCK       CLOUDY    57  53  86 NE9       30.06F
MINOT          CLOUDY    53  47  79 CALM      30.07S
MINOT AFB      PTSUNNY   54  54 100 N2        30.05F
GARRISON         N/A     55  51  86 CALM      30.07R
WILLISTON      MOSUNNY   49  43  80 CALM      30.07F
DICKINSON      CLOUDY    50  48  93 N3        30.05S
HETTINGER      CLOUDY    51  49  92 NE10      30.05S FOG
$$

 *****  OTHER OBSERVATIONS NORTHEAST NORTH DAKOTA  *****

CITY           SKY/WX    TMP DP  RH WIND       PRES   REMARKS
WALHALLA         N/A     64  48  55 NW3       30.06F
LANGDON        FAIR      61  48  63 N7        30.08F
CAVALIER       FAIR      61  48  63 SE3       30.07S
GRAFTON        FAIR      57  52  82 S3        30.08F
CANDO          FAIR      59  50  72 CALM      30.08S
FORT TOTTEN      N/A     60  51  72 N3        29.95S
ROLLA          FAIR      64  45  48 NW3       30.09S
RUGBY          NOT AVBL
 ***** THE ABOVE OBSERVATIONS ARE NON NWS ARE NOT QUALITY
        CONTROLLED AND MAY MIS-REPORT RAIN FOR SNOW...
$$

 *****  OTHER OBSERVATIONS SOUTHEAST NORTH DAKOTA *****

CITY           SKY/WX    TMP DP  RH WIND       PRES   REMARKS
COOPERSTOWN    NOT AVBL
VALLEY CITY    CLOUDY    57  55  94 N5        30.06F
OAKES            N/A     57  52  82 NE12      30.03F
GWINNER        NOT AVBL
SHEYENNE NWR     N/A     57  50  77 NE5       29.95S
BUFFALO        NOT AVBL
WYNDMERE         N/A     63  48  59 E10         N/A
 ***** THE ABOVE OBSERVATIONS ARE NON NWS ARE NOT QUALITY
       CONTROLLED AND MAY MIS-REPORT RAIN FOR SNOW...
$$

  *****  WEATHER ACROSS NORTHERN MINNESOTA  *****

CITY           SKY/WX    TMP DP  RH WIND       PRES   REMARKS
FLAG ISLAND    SUNNY     64  45  48 W12       30.05F
WARROAD        SUNNY     61  50  67 W3        30.08S
ROSEAU         SUNNY     61  50  67 SW5       30.08S
HALLOCK        SUNNY     61  48  63 S7        30.07S
THF RVR FALLS  SUNNY     61  46  59 CALM      30.10F
HALSTAD          N/A     62  48  60 N3          N/A
FOSSTON        MOSUNNY   63  55  77 CALM      30.09F
BAUDETTE       SUNNY     58  47  66 CALM      30.08F
WASKISH        MOSUNNY   61  52  72 CALM      30.10F
CROOKSTON      MOSUNNY   61  48  63 CALM      30.08F
$$
  *****  WEATHER ACROSS CENTRAL AND WEST MINNESOTA  *****

CITY           SKY/WX    TMP DP  RH WIND       PRES   REMARKS
BEMIDJI        MOSUNNY   59  48  67 CALM      30.10S
PARK RAPIDS    CLOUDY    59  47  64 NE3       30.08F
WADENA         CLOUDY    57  46  67 E5        30.07S
DETROIT LAKES  PTSUNNY   59  48  67 E5        30.07F
MOORHEAD       MOSUNNY   61  50  67 NE6       30.06F
FERGUS FALLS   CLOUDY    61  48  63 E6        30.06S
ELBOW LAKE     CLOUDY    60  48  65 E9        30.03F
MORRIS MN      CLOUDY    61  50  67 E9        30.01F
STAPLES        CLOUDY    57  48  72 CALM      30.08S
WHEATON        CLOUDY    59  48  67 E6        30.04S
$$
  *****  WEATHER ELSEWHERE ACROSS MINNESOTA  *****

CITY           SKY/WX    TMP DP  RH WIND       PRES   REMARKS
DULUTH         PTSUNNY   61  47  59 VRB3      30.11F
INTRNTL FALLS  SUNNY     58  46  64 W3        30.09F
ELY            SUNNY     63  46  55 CALM      30.11S
CLOQUET          N/A     61  45  55 CALM      30.11S
BRAINERD       CLOUDY    58  49  72 N5        30.09S
HIBBING        MOSUNNY   57  46  66 CALM      30.12S
ALEXANDRIA     CLOUDY    59  47  64 E7        30.07R
SAINT CLOUD    CLOUDY    60  48  64 E7        30.06R
MINNEAPOLIS    CLOUDY    62  50  64 E6        30.06R
$$

  *****  WEATHER ACROSS SOUTH DAKOTA  *****

CITY           SKY/WX    TMP DP  RH WIND       PRES   REMARKS
SIOUX FALLS    LGT RAIN  60  58  92 E8        29.95F
BROOKINGS      CLOUDY    57  55  94 NE5       29.98F
WATERTOWN      CLOUDY    56  50  80 E6        30.00F
HURON          CLOUDY    58  56  93 NE6       29.97F FOG
SISSETON         N/A     59  50  72 CALM      30.02S
ABERDEEN       CLOUDY    58  50  75 NE8       30.01R
MITCHELL       CLOUDY    59  58  96 E6        29.95F FOG
PIERRE         CLOUDY    56  53  90 NE6       29.98R
MOBRIDGE       CLOUDY    57  51  80 NE10      29.98F
RAPID CITY     RAIN      52  51  97 NE14      29.94F FOG
$$

  *****  SOME WEATHER IN NEARBY STATES *****

CITY           SKY/WX    TMP DP  RH WIND       PRES   REMARKS
GLASGOW MT     PTSUNNY   49  41  74 N6        30.07S
GREAT FALLS MT FOG       45  45 100 CALM      30.10R VSB<1/4
CHEYENNE WY    SUNNY     41  39  93 W5        29.93S
SCOTTSBLUFF NE CLOUDY    52  51  97 SE3       29.89F
OMAHA NE       DRIZZLE   61  60  97 E10       29.88S FOG
DES MOINES IA  LGT RAIN  62  59  90 E14       29.94F FOG
DAVENPORT IA   LGT RAIN  59  55  87 SE8       30.12S
CHICAGO IL     CLOUDY    62  52  69 S6        30.18S
EAU CLAIRE WI  CLOUDY    62  47  57 CALM      30.08F
LA CROSSE WI   CLOUDY    61  51  70 S3        30.09S
$$

  *****  SOME NATIONAL WEATHER *****

CITY           SKY/WX    TMP DP  RH WIND       PRES   REMARKS
LA GUARDIA NY  MOSUNNY   65  42  43 SW9       30.36S
RALEIGH NC     MOSUNNY   70  60  70 VRB5      30.43S
ATLANTA GA     PTSUNNY   67  59  75 SE9       30.35R
NEW ORLEANS LA MOSUNNY   80  72  76 SE9       30.08R
OKLAHOMA CITY  CLOUDY    61  59  93 SE7       29.87R
ALBUQUERQUE NM PTSUNNY   50  36  58 S3        30.00R
SALT LAKE CITY MOCLDY    48  43  82 SE7       29.96R
LOS ANGELES CA CLOUDY    58  52  80 W7        30.00R
BOISE ID       CLOUDY    58  49  72 S6        29.95R
SEATTLE WA     CLOUDY    54  48  82 SW5       30.16S
$$

*** WEATHER ACROSS MANITOBA...SASKATCHEWAN AND ONTARIO ***
                ***ONTARIO***

CITY           SKY/WX    TMP DP  RH WIND       PRES   REMARKS
GERALDTON      MOSUNNY   54  43  66 VRB2      30.05F
THUNDER BAY    MOSUNNY   66  46  48 W9        30.06F
SIOUX LOOKOUT  MOSUNNY   59  41  51 NW8       30.04F
TORONTO        PTSUNNY   68  39  34 W6        30.26F
BIG TROUT LK   MOSUNNY   48  30  49 W13G22    29.97F
PICKLE LAKE    SUNNY     48  36  61 CALM      30.06S
DRYDEN         SUNNY     61  43  51 W9        30.05F
KENORA         MOSUNNY   61  45  55 W6        30.07S
$$
                *** MANITOBA***

CITY           SKY/WX    TMP DP  RH WIND       PRES   REMARKS
BRANDON        MOSUNNY   55  46  71 E8        30.08R
DAUPHIN        SUNNY     52  45  76 VRB2      30.08F
ISLAND LAKE    SUNNY     48  30  49 W6        30.07F
PILOT MOUND      N/A     59  46  63 NW1         N/A
THE PAS        MOSUNNY   54  41  62 S8        30.07F
THOMPSON       MOSUNNY   54  28  37 W9        30.00F
WINNIPEG       MOSUNNY   61  46  59 W6        30.05F
LYNN LAKE      SUNNY     57  25  28 W9        30.00F
CHURCHILL      CLOUDY    36  30  80 NW16      29.90S
$$
                ***SASKATCHEWAN***

CITY           SKY/WX    TMP DP  RH WIND       PRES   REMARKS
ESTEVAN        MOSUNNY   54  46  76 SW6       30.07S
KINDERSLEY     PTSUNNY   52  34  50 S3        30.09S
LLOYDMINSTER   MOSUNNY   55  43  62 CALM      30.06F
PRINCE ALBERT  MOSUNNY   52  46  82 CALM      30.06F SMOKE
REGINA         MOSUNNY   55  39  54 NW5       30.08S
YORKTON        SUNNY     52  46  82 CALM      30.08S



USA.gov is the U.S. government's official web portal to all federal, state and local government web resources and services.